User: anonymous   Login
Location: Unspecified
(0.0000°N, 0.0000°E)
Time: 15:47:39
(UTC+00:00)
Language:

Cosmos 1861 - Orbit

View from above orbital plane
View from above orbital plane
View from above satellite
View from above satellite

Ground track
Ground track

The orbit data is extracted from the following two-line orbital elements,

1 18129U 87054A   18197.83905510  .00000044  00000-0  31560-4 0  9999
2 18129  82.9275 303.5338 0013041  75.1923  40.5186 13.73008770556621
Epoch (UTC): 16 July 2018 20:08:14
Eccentricity: 0.0013041
inclination: 82.9275°
perigee height: 979 km
apogee height: 998 km
right ascension of ascending node: 303.5338°
argument of perigee: 75.1923°
revolutions per day: 13.73008770
mean anomaly at epoch: 40.5186°
orbit number at epoch: 55662

The dashed part of the orbit path shows where the satellite is in the earth's shadow,  

DLR